Location: Unspecified
(43.4354°N, 0.0000°E)
Time: 19:24:10
(UTC+00:00)

S-56A Canister/Altair - Pass Details

Date: 25 June 2019
Orbit: 633 x 2499 km, 38.9° (Epoch: 19 August)

Event Time Altitude Azimuth Distance (km) Brightness Sun altitude
Rises 18:04:17 0° 271° (W) 4,676 13.0 15.6°
Reaches altitude 10° 18:07:57 10° 267° (W) 3,384 12.4 14.9°
Maximum altitude 18:15:40 55° 193° (SSW) 1,170 8.6 13.6°
Drops below altitude 10° 18:20:57 10° 116° (ESE) 2,341 9.4 12.7°
Sets 18:23:05 0° 112° (ESE) 3,138 10.0 12.3°
